Location: Aalen
(48.8330°N, 10.1000°E)
Time: 19:34:16
(UTC+02:00)

M-CUBED/EXP-1 PRIME - Pass Details

Date: 23 September 2021
Orbit: 427 x 655 km, 101.7° (Epoch: 19 October)

Event Time Altitude Azimuth Distance (km) Brightness Sun altitude
Rises 06:17:27 0° 16° (NNE) 2,453 ? -9.0°
Reaches altitude 10° 06:19:31 10° 12° (NNE) 1,558 ? -8.7°
Maximum altitude 06:22:45 55° 293° (WNW) 524 ? -8.2°
Drops below altitude 10° 06:25:54 10° 215° (SW) 1,521 ? -7.7°
Sets 06:27:54 0° 211° (SSW) 2,386 ? -7.3°
